Location: Albany
(35.0000°S, 118.0000°E)
Time: 08:22:01
(UTC-04:00)

SJ-6B - Visible Passes

Search period start: 05 May 2016 00:00
Search period end: 15 May 2016 00:00
Orbit: 511 x 587 km, 97.8° (Epoch: 04 May)

Date Brightness Start Highest point End Pass type
(mag) Time Alt. Az. Time Alt. Az. Time Alt. Az.
05 May 4.4 06:38:56 19° NE 06:38:56 19° NE 06:40:35 10° NNE visible
05 May 6.0 08:14:39 11° WNW 08:14:39 11° WNW 08:14:55 10° WNW visible
05 May 6.3 17:18:17 10° ESE 17:18:53 10° ESE 17:19:31 10° SE visible
06 May 4.6 06:34:37 16° NE 06:34:37 16° NE 06:35:54 10° NE visible
06 May 5.9 08:10:19 12° WNW 08:10:19 12° WNW 08:10:39 10° WNW visible
07 May 4.8 06:30:16 14° NE 06:30:16 14° NE 06:31:10 10° NE visible
07 May 5.8 08:05:59 12° NW 08:05:59 12° NW 08:06:22 10° NW visible
08 May 4.9 06:25:55 12° NE 06:25:55 12° NE 06:26:23 10° NE visible
08 May 5.7 08:01:38 12° NW 08:01:38 12° NW 08:02:03 10° NW visible
09 May 5.7 07:57:15 13° NW 07:57:15 13° NW 07:57:43 10° NW visible
10 May 5.6 07:52:53 13° NW 07:52:53 13° NW 07:53:22 10° NW visible
10 May 3.3 18:26:34 10° NNE 18:30:43 72° ESE 18:34:56 10° S visible
11 May 5.5 07:48:29 13° NW 07:48:29 13° NW 07:48:58 10° NW visible
11 May 3.5 18:22:08 10° NNE 18:26:16 63° ESE 18:30:27 10° S visible
12 May 5.5 07:44:04 13° NNW 07:44:04 13° NNW 07:44:34 10° NNW visible
12 May 3.8 18:17:44 10° NNE 18:21:49 55° ESE 18:25:57 10° S visible
13 May 5.4 07:39:39 13° NNW 07:39:39 13° NNW 07:40:08 10° NNW visible
13 May 4.1 18:13:20 10° NNE 18:17:21 48° ESE 18:21:26 10° S visible
14 May 5.4 07:35:13 13° NNW 07:35:13 13° NNW 07:35:42 10° NNW visible
14 May 4.3 18:08:57 10° NE 18:12:54 42° ESE 18:16:54 10° S visible
